Location: Gallinara
(44.0333°N, 8.2333°E)
Time: 07:03:37
(UTC+00:00)

USA 234 - Pass Details

Date: 25 September 2020
Orbit: 1102 x 1106 km, 123.0° (Epoch: 16 October)

Event Time Altitude Azimuth Distance (km) Brightness Sun altitude
Rises 02:16:40 0° 101° (ESE) 3,913 6.7 -31.7°
Reaches altitude 10° 02:19:14 10° 96° (E) 2,957 6.1 -31.3°
Maximum altitude 02:25:24 46° 26° (NNE) 1,439 4.1 -30.4°
Enters shadow 02:30:49 14° 318° (NW) 2,695 5.2 -29.5°
